{"data":{"norad_id":69443,"epoch":"2026-09-20T02:55:24.472992Z","epoch_age_seconds":58096,"freshness":"FRESH","line1":"1 69443U 26127A   26263.12181103  .00014166  00000+0  42965-3 0  9996","line2":"2 69443  53.1574 167.5163 0001386  93.0046 267.1116 15.34396824 16132","mean_motion":15.34396824,"eccentricity":0.0001386,"inclination_deg":53.1574,"raan_deg":167.5163,"arg_perigee_deg":93.0046,"mean_anomaly_deg":267.1116,"bstar":0.00042965,"rev_number":1613,"period_min":93.847952333874,"perigee_km":461.76453819906,"apogee_km":463.66082173034,"semimajor_km":6840.8496799647,"source":"CELESTRAK","updated_at":"2026-09-20T09:00:44.198451Z"}}